User: anonymous   Login
Location: Unspecified
(0.0000°N, 0.0000°E)
Time: 06:22:05
(UTC+00:00)
Language:

Tiros 10 - Orbit

View from above orbital plane
View from above orbital plane
View from above satellite
View from above satellite

Ground track
Ground track

The orbit data is extracted from the following two-line orbital elements,

1 01430U 65051A   15024.62673078  .00000098  00000-0  43144-4 0  7935
2 01430 098.0727 214.9612 0056886 025.5501 334.8481 14.39999350597238
Epoch (UTC): 24 January 2015 15:02:29
Eccentricity: 0.0056886
inclination: 98.0727°
perigee height: 718 km
apogee height: 799 km
right ascension of ascending node: 214.9612°
argument of perigee: 25.5501°
revolutions per day: 14.39999350
mean anomaly at epoch: 334.8481°
orbit number at epoch: 59723

The dashed part of the orbit path shows where the satellite is in the earth's shadow,  

DLR